contact:dominique.lefevre@mio.osupytheas.fr, maurice.libes@osupytheas.fr, didier.mallarino@osupytheas.fr
Project:EMSO http://www.emso-fr.org/EMSO-France
Depth: 2436.0 m
Title:EMSO Ligure Ouest : Data MII capteur CSTAR
DateTime,Latitude,Longitude,Instrument_Serial,Reference_Counts,Signal_Counts,Corrected_Signal_raw_counts,Calculated_Beam_c_inverse_meters,Internal_thermistor_counts
DateTime,Latitude,Longitude,Instrument_Serial,Reference_Counts,Signal_Counts,Corrected_Signal_raw_counts,Calculated_Beam_c_inverse_meters,Internal_thermistor_counts
2021-12-08T00:01:15,42.805,6.029,CST-1368DR,5037,6528,13856,0.478,551
2021-12-08T00:04:17,42.805,6.029,CST-1368DR,5037,6528,13856,0.478,551
2021-12-08T00:07:18,42.805,6.029,CST-1368DR,5037,6526,13853,0.479,551
2021-12-08T00:10:20,42.805,6.029,CST-1368DR,5037,6529,13858,0.478,551
2021-12-08T00:13:21,42.805,6.029,CST-1368DR,5037,6528,13855,0.479,551
2021-12-08T00:16:23,42.805,6.029,CST-1368DR,5037,6528,13856,0.478,551
2021-12-08T00:19:24,42.805,6.029,CST-1368DR,5037,6528,13855,0.479,551
2021-12-08T00:22:26,42.805,6.029,CST-1368DR,5037,6528,13855,0.479,551
2021-12-08T00:25:28,42.805,6.029,CST-1368DR,5037,6527,13854,0.479,551
2021-12-08T00:28:29,42.805,6.029,CST-1368DR,5037,6528,13855,0.479,551
2021-12-08T00:31:31,42.805,6.029,CST-1368DR,5037,6528,13856,0.478,551
2021-12-08T00:34:32,42.805,6.029,CST-1368DR,5037,6528,13856,0.478,551
2021-12-08T00:37:34,42.805,6.029,CST-1368DR,5037,6527,13855,0.479,551
2021-12-08T00:40:36,42.805,6.029,CST-1368DR,5037,6528,13856,0.478,551
2021-12-08T00:43:37,42.805,6.029,CST-1368DR,5037,6528,13856,0.478,551
2021-12-08T00:46:39,42.805,6.029,CST-1368DR,5037,6528,13856,0.478,551
2021-12-08T00:49:40,42.805,6.029,CST-1368DR,5037,6528,13856,0.478,551
2021-12-08T00:52:42,42.805,6.029,CST-1368DR,5037,6528,13856,0.478,551
2021-12-08T00:55:43,42.805,6.029,CST-1368DR,5037,6528,13857,0.478,551
2021-12-08T00:58:45,42.805,6.029,CST-1368DR,5037,6528,13857,0.478,551
2021-12-08T01:01:47,42.805,6.029,CST-1368DR,5037,6527,13855,0.479,551
2021-12-08T01:04:48,42.805,6.029,CST-1368DR,5037,6527,13855,0.479,551
2021-12-08T01:07:50,42.805,6.029,CST-1368DR,5037,6529,13858,0.478,551
2021-12-08T01:10:51,42.805,6.029,CST-1368DR,5037,6529,13858,0.478,551
2021-12-08T01:13:53,42.805,6.029,CST-1368DR,5037,6528,13857,0.478,551
2021-12-08T01:16:54,42.805,6.029,CST-1368DR,5037,6528,13856,0.478,551
2021-12-08T01:19:56,42.805,6.029,CST-1368DR,5037,6527,13854,0.479,551
2021-12-08T01:22:58,42.805,6.029,CST-1368DR,5037,6527,13854,0.479,551
2021-12-08T01:25:59,42.805,6.029,CST-1368DR,5037,6528,13857,0.478,551
2021-12-08T01:29:01,42.805,6.029,CST-1368DR,5037,6528,13856,0.478,551
2021-12-08T01:32:02,42.805,6.029,CST-1368DR,5037,6527,13854,0.479,551
2021-12-08T01:35:04,42.805,6.029,CST-1368DR,5037,6528,13856,0.478,551
2021-12-08T01:38:06,42.805,6.029,CST-1368DR,5037,6528,13855,0.479,551
2021-12-08T01:41:07,42.805,6.029,CST-1368DR,5037,6528,13856,0.478,551
2021-12-08T01:44:09,42.805,6.029,CST-1368DR,5037,6528,13857,0.478,551
2021-12-08T01:47:10,42.805,6.029,CST-1368DR,5037,6528,13856,0.478,551
2021-12-08T01:50:12,42.805,6.029,CST-1368DR,5037,6527,13855,0.479,551
2021-12-08T01:53:13,42.805,6.029,CST-1368DR,5037,6526,13852,0.479,551
2021-12-08T01:56:15,42.805,6.029,CST-1368DR,5037,6528,13856,0.478,551
2021-12-08T01:59:17,42.805,6.029,CST-1368DR,5037,6529,13857,0.478,551
2021-12-08T02:02:18,42.805,6.029,CST-1368DR,5037,6528,13857,0.478,551
2021-12-08T02:05:20,42.805,6.029,CST-1368DR,5037,6528,13857,0.478,551
2021-12-08T02:08:21,42.805,6.029,CST-1368DR,5037,6529,13857,0.478,551
2021-12-08T02:11:23,42.805,6.029,CST-1368DR,5037,6529,13857,0.478,551
2021-12-08T02:14:25,42.805,6.029,CST-1368DR,5037,6528,13855,0.479,551
2021-12-08T02:17:26,42.805,6.029,CST-1368DR,5037,6524,13847,0.481,551
2021-12-08T02:20:28,42.805,6.029,CST-1368DR,5037,6528,13856,0.478,551
2021-12-08T02:23:29,42.805,6.029,CST-1368DR,5037,6528,13856,0.478,551
2021-12-08T02:26:31,42.805,6.029,CST-1368DR,5037,6527,13855,0.479,551
2021-12-08T02:29:32,42.805,6.029,CST-1368DR,5037,6527,13855,0.479,551
2021-12-08T02:32:34,42.805,6.029,CST-1368DR,5037,6528,13856,0.478,551
2021-12-08T02:35:36,42.805,6.029,CST-1368DR,5037,6527,13854,0.479,551
2021-12-08T02:38:37,42.805,6.029,CST-1368DR,5037,6527,13855,0.479,551
2021-12-08T02:41:39,42.805,6.029,CST-1368DR,5037,6528,13855,0.479,551
2021-12-08T02:44:40,42.805,6.029,CST-1368DR,5037,6526,13853,0.479,551
2021-12-08T02:47:42,42.805,6.029,CST-1368DR,5037,6527,13854,0.479,550
2021-12-08T02:50:43,42.805,6.029,CST-1368DR,5037,6526,13853,0.479,550
2021-12-08T02:53:45,42.805,6.029,CST-1368DR,5037,6528,13856,0.478,551
2021-12-08T02:56:47,42.805,6.029,CST-1368DR,5037,6527,13854,0.479,551
2021-12-08T02:59:48,42.805,6.029,CST-1368DR,5037,6528,13855,0.479,551
2021-12-08T03:02:50,42.805,6.029,CST-1368DR,5037,6527,13854,0.479,551
2021-12-08T03:05:51,42.805,6.029,CST-1368DR,5037,6528,13856,0.478,551
2021-12-08T03:08:53,42.805,6.029,CST-1368DR,5037,6528,13856,0.478,551
2021-12-08T03:11:55,42.805,6.029,CST-1368DR,5037,6528,13855,0.479,551
2021-12-08T03:14:56,42.805,6.029,CST-1368DR,5037,6528,13856,0.478,551
2021-12-08T03:17:58,42.805,6.029,CST-1368DR,5037,6528,13856,0.478,551
2021-12-08T03:20:59,42.805,6.029,CST-1368DR,5037,6528,13856,0.478,551
2021-12-08T03:24:01,42.805,6.029,CST-1368DR,5037,6527,13855,0.479,551
2021-12-08T03:27:02,42.805,6.029,CST-1368DR,5037,6527,13854,0.479,551
2021-12-08T03:30:04,42.805,6.029,CST-1368DR,5037,6528,13856,0.478,551
2021-12-08T03:33:06,42.805,6.029,CST-1368DR,5037,6528,13855,0.479,551
2021-12-08T03:36:07,42.805,6.029,CST-1368DR,5037,6528,13855,0.479,551
2021-12-08T03:39:09,42.805,6.029,CST-1368DR,5037,6528,13856,0.478,551
2021-12-08T03:42:10,42.805,6.029,CST-1368DR,5037,6528,13856,0.478,551
2021-12-08T03:45:12,42.805,6.029,CST-1368DR,5037,6528,13856,0.478,551
2021-12-08T03:48:14,42.805,6.029,CST-1368DR,5037,6528,13856,0.478,551
2021-12-08T03:51:15,42.805,6.029,CST-1368DR,5037,6528,13856,0.478,551
2021-12-08T03:54:17,42.805,6.029,CST-1368DR,5037,6528,13856,0.478,551
2021-12-08T03:57:18,42.805,6.029,CST-1368DR,5037,6527,13854,0.479,551
2021-12-08T04:00:20,42.805,6.029,CST-1368DR,5037,6528,13856,0.478,551
2021-12-08T04:03:21,42.805,6.029,CST-1368DR,5037,6528,13855,0.479,551
2021-12-08T04:06:23,42.805,6.029,CST-1368DR,5037,6528,13857,0.478,551
2021-12-08T04:09:25,42.805,6.029,CST-1368DR,5037,6528,13855,0.479,551
2021-12-08T04:12:26,42.805,6.029,CST-1368DR,5037,6527,13855,0.479,551
2021-12-08T04:15:28,42.805,6.029,CST-1368DR,5037,6528,13855,0.479,551
2021-12-08T04:18:29,42.805,6.029,CST-1368DR,5037,6528,13856,0.478,551
2021-12-08T04:21:31,42.805,6.029,CST-1368DR,5037,6528,13856,0.478,551
2021-12-08T04:24:32,42.805,6.029,CST-1368DR,5037,6526,13851,0.480,551
2021-12-08T04:27:34,42.805,6.029,CST-1368DR,5037,6527,13854,0.479,551
2021-12-08T04:30:36,42.805,6.029,CST-1368DR,5037,6528,13855,0.479,551
2021-12-08T04:33:37,42.805,6.029,CST-1368DR,5037,6526,13852,0.479,551
2021-12-08T04:36:39,42.805,6.029,CST-1368DR,5037,6527,13855,0.479,551
2021-12-08T04:39:40,42.805,6.029,CST-1368DR,5037,6527,13855,0.479,550
2021-12-08T04:42:42,42.805,6.029,CST-1368DR,5037,6527,13855,0.479,551
2021-12-08T04:45:44,42.805,6.029,CST-1368DR,5037,6528,13856,0.478,550
2021-12-08T04:48:45,42.805,6.029,CST-1368DR,5037,6527,13855,0.479,551
2021-12-08T04:51:47,42.805,6.029,CST-1368DR,5037,6528,13855,0.479,551
2021-12-08T04:54:48,42.805,6.029,CST-1368DR,5037,6527,13854,0.479,551
2021-12-08T04:57:50,42.805,6.029,CST-1368DR,5037,6527,13854,0.479,551
2021-12-08T05:00:51,42.805,6.029,CST-1368DR,5037,6527,13854,0.479,551
2021-12-08T05:03:53,42.805,6.029,CST-1368DR,5037,6527,13854,0.479,551
2021-12-08T05:06:55,42.805,6.029,CST-1368DR,5037,6526,13853,0.479,551
2021-12-08T05:09:56,42.805,6.029,CST-1368DR,5037,6526,13852,0.479,551
2021-12-08T05:12:58,42.805,6.029,CST-1368DR,5037,6527,13854,0.479,551
2021-12-08T05:15:59,42.805,6.029,CST-1368DR,5037,6527,13855,0.479,551
2021-12-08T05:19:01,42.805,6.029,CST-1368DR,5037,6528,13855,0.479,551
2021-12-08T05:22:03,42.805,6.029,CST-1368DR,5037,6526,13853,0.479,551
2021-12-08T05:25:04,42.805,6.029,CST-1368DR,5037,6528,13855,0.479,551
2021-12-08T05:28:06,42.805,6.029,CST-1368DR,5037,6527,13854,0.479,551
2021-12-08T05:31:07,42.805,6.029,CST-1368DR,5037,6527,13855,0.479,551
2021-12-08T05:34:09,42.805,6.029,CST-1368DR,5036,6527,13857,0.478,551
2021-12-08T05:37:10,42.805,6.029,CST-1368DR,5037,6527,13854,0.479,551
2021-12-08T05:40:12,42.805,6.029,CST-1368DR,5037,6527,13855,0.479,551
2021-12-08T05:43:14,42.805,6.029,CST-1368DR,5037,6527,13854,0.479,551
2021-12-08T05:46:15,42.805,6.029,CST-1368DR,5037,6527,13854,0.479,551
2021-12-08T05:49:17,42.805,6.029,CST-1368DR,5036,6526,13854,0.479,551
2021-12-08T05:52:18,42.805,6.029,CST-1368DR,5036,6526,13854,0.479,551
2021-12-08T05:55:20,42.805,6.029,CST-1368DR,5036,6524,13850,0.480,551
2021-12-08T05:58:21,42.805,6.029,CST-1368DR,5036,6525,13853,0.479,551
2021-12-08T06:01:23,42.805,6.029,CST-1368DR,5036,6525,13853,0.479,551
2021-12-08T06:04:25,42.805,6.029,CST-1368DR,5036,6526,13854,0.479,551
2021-12-08T06:07:26,42.805,6.029,CST-1368DR,5036,6526,13855,0.479,551
2021-12-08T06:10:28,42.805,6.029,CST-1368DR,5036,6527,13857,0.478,551
2021-12-08T06:13:29,42.805,6.029,CST-1368DR,5036,6527,13856,0.478,551
2021-12-08T06:16:31,42.805,6.029,CST-1368DR,5036,6526,13855,0.479,551
2021-12-08T06:19:33,42.805,6.029,CST-1368DR,5036,6526,13855,0.479,551
2021-12-08T06:22:34,42.805,6.029,CST-1368DR,5036,6526,13854,0.479,551
2021-12-08T06:25:36,42.805,6.029,CST-1368DR,5036,6525,13852,0.479,551
2021-12-08T06:28:37,42.805,6.029,CST-1368DR,5036,6526,13855,0.479,551
2021-12-08T06:31:39,42.805,6.029,CST-1368DR,5036,6526,13855,0.479,551
2021-12-08T06:34:40,42.805,6.029,CST-1368DR,5036,6525,13853,0.479,551
2021-12-08T06:37:42,42.805,6.029,CST-1368DR,5036,6525,13853,0.479,551
2021-12-08T06:40:44,42.805,6.029,CST-1368DR,5036,6526,13855,0.479,551
2021-12-08T06:43:45,42.805,6.029,CST-1368DR,5036,6525,13852,0.479,551
2021-12-08T06:46:47,42.805,6.029,CST-1368DR,5036,6526,13855,0.479,551
2021-12-08T06:49:48,42.805,6.029,CST-1368DR,5036,6525,13852,0.479,551
2021-12-08T06:52:50,42.805,6.029,CST-1368DR,5036,6526,13855,0.479,551
2021-12-08T06:55:52,42.805,6.029,CST-1368DR,5036,6526,13854,0.479,551
2021-12-08T06:58:53,42.805,6.029,CST-1368DR,5036,6526,13854,0.479,551
2021-12-08T07:01:55,42.805,6.029,CST-1368DR,5036,6526,13855,0.479,551
2021-12-08T07:04:56,42.805,6.029,CST-1368DR,5036,6526,13854,0.479,551
2021-12-08T07:07:58,42.805,6.029,CST-1368DR,5036,6527,13856,0.478,550
2021-12-08T07:10:59,42.805,6.029,CST-1368DR,5036,6526,13854,0.479,551
2021-12-08T07:14:01,42.805,6.029,CST-1368DR,5036,6525,13853,0.479,551
2021-12-08T07:17:03,42.805,6.029,CST-1368DR,5036,6525,13853,0.479,551
2021-12-08T07:20:04,42.805,6.029,CST-1368DR,5036,6526,13854,0.479,551
2021-12-08T07:23:06,42.805,6.029,CST-1368DR,5036,6527,13856,0.478,551
2021-12-08T07:26:07,42.805,6.029,CST-1368DR,5036,6526,13854,0.479,551
2021-12-08T07:29:09,42.805,6.029,CST-1368DR,5036,6526,13855,0.479,551
2021-12-08T07:32:10,42.805,6.029,CST-1368DR,5036,6526,13854,0.479,551
2021-12-08T07:35:12,42.805,6.029,CST-1368DR,5036,6526,13854,0.479,551
2021-12-08T07:38:14,42.805,6.029,CST-1368DR,5036,6526,13855,0.479,551
2021-12-08T07:41:15,42.805,6.029,CST-1368DR,5036,6526,13855,0.479,551
2021-12-08T07:44:17,42.805,6.029,CST-1368DR,5036,6526,13854,0.479,551
2021-12-08T07:47:18,42.805,6.029,CST-1368DR,5036,6526,13854,0.479,551
2021-12-08T07:50:20,42.805,6.029,CST-1368DR,5036,6526,13854,0.479,551
2021-12-08T07:53:22,42.805,6.029,CST-1368DR,5036,6526,13854,0.479,551
2021-12-08T07:56:23,42.805,6.029,CST-1368DR,5036,6526,13855,0.479,551
2021-12-08T07:59:25,42.805,6.029,CST-1368DR,5036,6526,13855,0.479,551
2021-12-08T08:02:26,42.805,6.029,CST-1368DR,5036,6525,13852,0.479,551
2021-12-08T08:05:28,42.805,6.029,CST-1368DR,5036,6526,13855,0.479,551
2021-12-08T08:08:29,42.805,6.029,CST-1368DR,5036,6526,13854,0.479,551
2021-12-08T08:11:31,42.805,6.029,CST-1368DR,5036,6526,13854,0.479,551
2021-12-08T08:14:33,42.805,6.029,CST-1368DR,5036,6525,13851,0.480,551
2021-12-08T08:17:34,42.805,6.029,CST-1368DR,5036,6525,13853,0.479,551
2021-12-08T08:20:36,42.805,6.029,CST-1368DR,5036,6526,13854,0.479,551
2021-12-08T08:23:37,42.805,6.029,CST-1368DR,5036,6526,13854,0.479,551
2021-12-08T08:26:39,42.805,6.029,CST-1368DR,5036,6525,13853,0.479,551
2021-12-08T08:29:40,42.805,6.029,CST-1368DR,5036,6524,13850,0.480,551
2021-12-08T08:32:42,42.805,6.029,CST-1368DR,5036,6525,13853,0.479,551
2021-12-08T08:35:44,42.805,6.029,CST-1368DR,5036,6525,13852,0.479,551
2021-12-08T08:38:45,42.805,6.029,CST-1368DR,5036,6525,13853,0.479,551
2021-12-08T08:41:47,42.805,6.029,CST-1368DR,5036,6526,13855,0.479,551
2021-12-08T08:44:48,42.805,6.029,CST-1368DR,5036,6526,13854,0.479,551
2021-12-08T08:47:50,42.805,6.029,CST-1368DR,5036,6527,13856,0.478,551
2021-12-08T08:50:52,42.805,6.029,CST-1368DR,5036,6527,13856,0.478,551
2021-12-08T08:53:53,42.805,6.029,CST-1368DR,5036,6526,13855,0.479,551
2021-12-08T08:56:55,42.805,6.029,CST-1368DR,5036,6526,13854,0.479,551
2021-12-08T08:59:56,42.805,6.029,CST-1368DR,5036,6525,13852,0.479,551
2021-12-08T09:02:58,42.805,6.029,CST-1368DR,5036,6526,13854,0.479,551
2021-12-08T09:05:59,42.805,6.029,CST-1368DR,5036,6526,13855,0.479,551
2021-12-08T09:09:01,42.805,6.029,CST-1368DR,5036,6527,13857,0.478,551
2021-12-08T09:12:03,42.805,6.029,CST-1368DR,5036,6526,13855,0.479,551
2021-12-08T09:15:04,42.805,6.029,CST-1368DR,5036,6526,13854,0.479,551
2021-12-08T09:18:06,42.805,6.029,CST-1368DR,5036,6525,13853,0.479,551
2021-12-08T09:21:07,42.805,6.029,CST-1368DR,5036,6526,13854,0.479,551
2021-12-08T09:24:09,42.805,6.029,CST-1368DR,5036,6526,13855,0.479,551
2021-12-08T09:27:11,42.805,6.029,CST-1368DR,5036,6525,13853,0.479,551
2021-12-08T09:30:12,42.805,6.029,CST-1368DR,5036,6526,13855,0.479,551
2021-12-08T09:33:14,42.805,6.029,CST-1368DR,5036,6526,13854,0.479,551
2021-12-08T09:36:15,42.805,6.029,CST-1368DR,5036,6525,13853,0.479,551
2021-12-08T09:39:17,42.805,6.029,CST-1368DR,5036,6526,13854,0.479,551
2021-12-08T09:42:18,42.805,6.029,CST-1368DR,5036,6525,13853,0.479,551
2021-12-08T09:45:20,42.805,6.029,CST-1368DR,5036,6524,13849,0.480,551
2021-12-08T09:48:22,42.805,6.029,CST-1368DR,5036,6526,13855,0.479,551
2021-12-08T09:51:23,42.805,6.029,CST-1368DR,5036,6525,13852,0.479,551
2021-12-08T09:54:25,42.805,6.029,CST-1368DR,5036,6525,13851,0.480,551
2021-12-08T09:57:26,42.805,6.029,CST-1368DR,5036,6524,13851,0.480,551
2021-12-08T10:00:28,42.805,6.029,CST-1368DR,5036,6525,13853,0.479,551
2021-12-08T10:03:29,42.805,6.029,CST-1368DR,5036,6522,13845,0.481,551
2021-12-08T10:06:31,42.805,6.029,CST-1368DR,5036,6525,13852,0.479,551
2021-12-08T10:09:33,42.805,6.029,CST-1368DR,5036,6524,13850,0.480,551
2021-12-08T10:12:34,42.805,6.029,CST-1368DR,5036,6525,13853,0.479,551
2021-12-08T10:15:36,42.805,6.029,CST-1368DR,5036,6523,13847,0.481,551
2021-12-08T10:18:37,42.805,6.029,CST-1368DR,5036,6524,13850,0.480,551
2021-12-08T10:21:39,42.805,6.029,CST-1368DR,5036,6525,13853,0.479,551
2021-12-08T10:24:41,42.805,6.029,CST-1368DR,5036,6524,13851,0.480,551
2021-12-08T10:27:42,42.805,6.029,CST-1368DR,5036,6524,13851,0.480,551
2021-12-08T10:30:44,42.805,6.029,CST-1368DR,5036,6525,13852,0.479,551
2021-12-08T10:33:45,42.805,6.029,CST-1368DR,5036,6525,13852,0.479,551
2021-12-08T10:36:47,42.805,6.029,CST-1368DR,5036,6525,13852,0.479,551
2021-12-08T10:39:48,42.805,6.029,CST-1368DR,5036,6524,13851,0.480,551
2021-12-08T10:42:50,42.805,6.029,CST-1368DR,5036,6525,13852,0.479,550
2021-12-08T10:45:52,42.805,6.029,CST-1368DR,5036,6524,13851,0.480,551
2021-12-08T10:48:53,42.805,6.029,CST-1368DR,5036,6524,13850,0.480,551
2021-12-08T10:51:55,42.805,6.029,CST-1368DR,5036,6525,13851,0.480,551
2021-12-08T10:54:56,42.805,6.029,CST-1368DR,5036,6523,13847,0.481,551
2021-12-08T10:57:58,42.805,6.029,CST-1368DR,5036,6525,13853,0.479,551
2021-12-08T11:00:59,42.805,6.029,CST-1368DR,5036,6525,13852,0.479,551
2021-12-08T11:04:01,42.805,6.029,CST-1368DR,5036,6525,13853,0.479,551
2021-12-08T11:07:03,42.805,6.029,CST-1368DR,5036,6523,13848,0.481,551
2021-12-08T11:10:04,42.805,6.029,CST-1368DR,5036,6525,13852,0.479,551
2021-12-08T11:13:06,42.805,6.029,CST-1368DR,5036,6525,13853,0.479,551
2021-12-08T11:16:07,42.805,6.029,CST-1368DR,5036,6522,13846,0.481,551
2021-12-08T11:19:09,42.805,6.029,CST-1368DR,5036,6525,13852,0.479,551
2021-12-08T11:22:11,42.805,6.029,CST-1368DR,5036,6525,13852,0.479,551
2021-12-08T11:25:12,42.805,6.029,CST-1368DR,5036,6525,13852,0.479,551
2021-12-08T11:28:14,42.805,6.029,CST-1368DR,5036,6525,13852,0.479,551
2021-12-08T11:31:15,42.805,6.029,CST-1368DR,5036,6524,13851,0.480,551
2021-12-08T11:34:17,42.805,6.029,CST-1368DR,5036,6525,13852,0.479,551
2021-12-08T11:37:18,42.805,6.029,CST-1368DR,5036,6525,13853,0.479,551
2021-12-08T11:40:20,42.805,6.029,CST-1368DR,5036,6525,13852,0.479,551
2021-12-08T11:43:22,42.805,6.029,CST-1368DR,5036,6524,13849,0.480,551
2021-12-08T11:46:23,42.805,6.029,CST-1368DR,5036,6524,13851,0.480,551
2021-12-08T11:49:25,42.805,6.029,CST-1368DR,5036,6525,13851,0.480,551
2021-12-08T11:52:26,42.805,6.029,CST-1368DR,5036,6526,13854,0.479,550
2021-12-08T11:55:28,42.805,6.029,CST-1368DR,5036,6523,13848,0.481,551
2021-12-08T11:58:30,42.805,6.029,CST-1368DR,5036,6520,13841,0.483,551
2021-12-08T12:01:31,42.805,6.029,CST-1368DR,5036,6524,13850,0.480,551
2021-12-08T12:04:33,42.805,6.029,CST-1368DR,5036,6522,13845,0.481,551
2021-12-08T12:07:34,42.805,6.029,CST-1368DR,5036,6521,13843,0.482,551
2021-12-08T12:10:36,42.805,6.029,CST-1368DR,5036,6521,13844,0.482,551
2021-12-08T12:13:37,42.805,6.029,CST-1368DR,5036,6523,13847,0.481,551
2021-12-08T12:16:39,42.805,6.029,CST-1368DR,5036,6523,13848,0.481,551
2021-12-08T12:19:41,42.805,6.029,CST-1368DR,5036,6523,13848,0.481,551
2021-12-08T12:22:42,42.805,6.029,CST-1368DR,5036,6523,13848,0.481,551
2021-12-08T12:25:44,42.805,6.029,CST-1368DR,5036,6523,13847,0.481,551
2021-12-08T12:28:45,42.805,6.029,CST-1368DR,5036,6519,13840,0.483,551
2021-12-08T12:31:47,42.805,6.029,CST-1368DR,5036,6523,13848,0.481,551
2021-12-08T12:34:49,42.805,6.029,CST-1368DR,5036,6523,13848,0.481,551
2021-12-08T12:37:50,42.805,6.029,CST-1368DR,5036,6523,13848,0.481,551
2021-12-08T12:40:52,42.805,6.029,CST-1368DR,5036,6521,13843,0.482,551
2021-12-08T12:43:53,42.805,6.029,CST-1368DR,5036,6521,13845,0.481,551
2021-12-08T12:46:55,42.805,6.029,CST-1368DR,5036,6521,13843,0.482,551
2021-12-08T12:49:56,42.805,6.029,CST-1368DR,5036,6523,13847,0.481,551
2021-12-08T12:52:58,42.805,6.029,CST-1368DR,5036,6523,13848,0.481,551
2021-12-08T12:56:00,42.805,6.029,CST-1368DR,5036,6522,13846,0.481,551
2021-12-08T12:59:01,42.805,6.029,CST-1368DR,5036,6523,13848,0.481,551
2021-12-08T13:02:03,42.805,6.029,CST-1368DR,5036,6523,13848,0.481,551
2021-12-08T13:05:04,42.805,6.029,CST-1368DR,5036,6523,13848,0.481,551
2021-12-08T13:08:06,42.805,6.029,CST-1368DR,5036,6524,13849,0.480,551
2021-12-08T13:11:07,42.805,6.029,CST-1368DR,5036,6522,13845,0.481,551
2021-12-08T13:14:09,42.805,6.029,CST-1368DR,5036,6514,13828,0.486,551
2021-12-08T13:17:11,42.805,6.029,CST-1368DR,5036,6513,13828,0.486,551
2021-12-08T13:20:12,42.805,6.029,CST-1368DR,5036,6514,13828,0.486,551
2021-12-08T13:23:14,42.805,6.029,CST-1368DR,5036,6513,13827,0.487,551
2021-12-08T13:26:15,42.805,6.029,CST-1368DR,5036,6511,13822,0.488,551
2021-12-08T13:29:17,42.805,6.029,CST-1368DR,5036,6513,13826,0.487,551
2021-12-08T13:32:19,42.805,6.029,CST-1368DR,5036,6513,13827,0.487,551
2021-12-08T13:35:20,42.805,6.029,CST-1368DR,5036,6512,13824,0.488,551
2021-12-08T13:38:22,42.805,6.029,CST-1368DR,5036,6511,13823,0.488,551
2021-12-08T13:41:23,42.805,6.029,CST-1368DR,5036,6510,13821,0.488,551
2021-12-08T13:44:25,42.805,6.029,CST-1368DR,5036,6512,13825,0.487,551
2021-12-08T13:47:26,42.805,6.029,CST-1368DR,5036,6512,13825,0.487,551
2021-12-08T13:50:28,42.805,6.029,CST-1368DR,5036,6512,13824,0.488,551
2021-12-08T13:53:30,42.805,6.029,CST-1368DR,5036,6512,13825,0.487,551
2021-12-08T13:56:31,42.805,6.029,CST-1368DR,5036,6513,13827,0.487,551
2021-12-08T13:59:33,42.805,6.029,CST-1368DR,5036,6512,13824,0.488,551
2021-12-08T14:02:34,42.805,6.029,CST-1368DR,5036,6511,13823,0.488,551
2021-12-08T14:05:36,42.805,6.029,CST-1368DR,5036,6511,13822,0.488,551
2021-12-08T14:08:38,42.805,6.029,CST-1368DR,5036,6511,13823,0.488,551
2021-12-08T14:11:39,42.805,6.029,CST-1368DR,5036,6512,13825,0.487,551
2021-12-08T14:14:41,42.805,6.029,CST-1368DR,5036,6512,13824,0.488,551
2021-12-08T14:17:42,42.805,6.029,CST-1368DR,5036,6512,13825,0.487,551
2021-12-08T14:20:44,42.805,6.029,CST-1368DR,5036,6512,13825,0.487,551
2021-12-08T14:23:45,42.805,6.029,CST-1368DR,5036,6512,13825,0.487,551
2021-12-08T14:26:47,42.805,6.029,CST-1368DR,5036,6512,13824,0.488,551
2021-12-08T14:29:49,42.805,6.029,CST-1368DR,5036,6512,13824,0.488,551
2021-12-08T14:32:50,42.805,6.029,CST-1368DR,5036,6512,13824,0.488,551
2021-12-08T14:35:52,42.805,6.029,CST-1368DR,5036,6512,13825,0.487,551
2021-12-08T14:38:53,42.805,6.029,CST-1368DR,5036,6510,13821,0.488,551
2021-12-08T14:41:55,42.805,6.029,CST-1368DR,5036,6512,13824,0.488,551
2021-12-08T14:44:56,42.805,6.029,CST-1368DR,5036,6512,13825,0.487,551
2021-12-08T14:47:58,42.805,6.029,CST-1368DR,5036,6512,13825,0.487,551
2021-12-08T14:51:00,42.805,6.029,CST-1368DR,5036,6512,13824,0.488,551
2021-12-08T14:54:01,42.805,6.029,CST-1368DR,5036,6512,13824,0.488,551
2021-12-08T14:57:03,42.805,6.029,CST-1368DR,5036,6513,13827,0.487,551
2021-12-08T15:00:04,42.805,6.029,CST-1368DR,5036,6523,13848,0.481,551
2021-12-08T15:03:06,42.805,6.029,CST-1368DR,5036,6523,13847,0.481,551
2021-12-08T15:06:08,42.805,6.029,CST-1368DR,5036,6524,13850,0.480,551
2021-12-08T15:09:09,42.805,6.029,CST-1368DR,5036,6522,13847,0.481,551
2021-12-08T15:12:11,42.805,6.029,CST-1368DR,5036,6522,13846,0.481,551
2021-12-08T15:15:12,42.805,6.029,CST-1368DR,5036,6522,13847,0.481,551
2021-12-08T15:18:14,42.805,6.029,CST-1368DR,5036,6520,13841,0.483,551
2021-12-08T15:21:15,42.805,6.029,CST-1368DR,5036,6521,13845,0.481,551
2021-12-08T15:24:17,42.805,6.029,CST-1368DR,5036,6522,13845,0.481,551
2021-12-08T15:27:19,42.805,6.029,CST-1368DR,5036,6521,13843,0.482,551
2021-12-08T15:30:20,42.805,6.029,CST-1368DR,5036,6520,13842,0.482,551
2021-12-08T15:33:22,42.805,6.029,CST-1368DR,5036,6523,13847,0.481,551
2021-12-08T15:36:23,42.805,6.029,CST-1368DR,5036,6522,13847,0.481,551
2021-12-08T15:39:25,42.805,6.029,CST-1368DR,5036,6522,13847,0.481,551
2021-12-08T15:42:27,42.805,6.029,CST-1368DR,5036,6524,13850,0.480,551
2021-12-08T15:45:28,42.805,6.029,CST-1368DR,5036,6522,13846,0.481,551
2021-12-08T15:48:30,42.805,6.029,CST-1368DR,5036,6521,13845,0.481,551
2021-12-08T15:51:31,42.805,6.029,CST-1368DR,5036,6522,13846,0.481,551
2021-12-08T15:54:33,42.805,6.029,CST-1368DR,5036,6522,13846,0.481,551
2021-12-08T15:57:34,42.805,6.029,CST-1368DR,5036,6522,13846,0.481,551
2021-12-08T16:00:36,42.805,6.029,CST-1368DR,5036,6521,13844,0.482,551
2021-12-08T16:03:38,42.805,6.029,CST-1368DR,5036,6521,13843,0.482,551
2021-12-08T16:06:39,42.805,6.029,CST-1368DR,5036,6522,13846,0.481,551
2021-12-08T16:09:41,42.805,6.029,CST-1368DR,5036,6521,13844,0.482,551
2021-12-08T16:12:42,42.805,6.029,CST-1368DR,5036,6521,13843,0.482,551
2021-12-08T16:15:44,42.805,6.029,CST-1368DR,5036,6522,13846,0.481,551
2021-12-08T16:18:45,42.805,6.029,CST-1368DR,5036,6521,13845,0.481,551
2021-12-08T16:21:47,42.805,6.029,CST-1368DR,5036,6521,13845,0.481,551
2021-12-08T16:24:49,42.805,6.029,CST-1368DR,5036,6521,13844,0.482,551
2021-12-08T16:27:50,42.805,6.029,CST-1368DR,5036,6521,13843,0.482,551
2021-12-08T16:30:52,42.805,6.029,CST-1368DR,5036,6521,13844,0.482,551
2021-12-08T16:33:53,42.805,6.029,CST-1368DR,5036,6522,13845,0.481,551
2021-12-08T16:36:55,42.805,6.029,CST-1368DR,5036,6520,13842,0.482,551
2021-12-08T16:39:57,42.805,6.029,CST-1368DR,5036,6522,13847,0.481,551
2021-12-08T16:42:58,42.805,6.029,CST-1368DR,5036,6524,13850,0.480,551
2021-12-08T16:46:00,42.805,6.029,CST-1368DR,5036,6523,13848,0.481,551
2021-12-08T16:49:01,42.805,6.029,CST-1368DR,5036,6524,13850,0.480,551
2021-12-08T16:52:03,42.805,6.029,CST-1368DR,5036,6522,13846,0.481,551